Location: Lincoln
(40.8000°N, 96.6670°W)
Time: 15:26:03
(UTC-06:00)

ISS - Visible Passes

Search period start: 02 February 2023 00:00
Search period end: 12 February 2023 00:00
Orbit: 412 x 419 km, 51.6° (Epoch: 02 February)

Date Brightness Start Highest point End Pass type
(mag) Time Alt. Az. Time Alt. Az. Time Alt. Az.
02 Feb -3.6 18:29:29 10° NW 18:32:48 56° NNE 18:36:07 10° ESE visible
02 Feb -1.0 20:06:59 10° W 20:09:06 17° SW 20:09:06 17° SW visible
03 Feb -1.9 19:17:41 10° WNW 19:20:39 29° SW 19:23:25 11° SSE visible
04 Feb -2.9 18:28:42 10° WNW 18:32:00 52° SW 18:35:16 10° SE visible
05 Feb -0.3 19:18:47 10° WSW 19:19:29 10° SW 19:20:11 10° SW visible
06 Feb -0.8 18:28:28 10° W 18:30:54 19° SW 18:33:19 10° S visible
